User: anonymous   Login
Location: Unspecified
(0.0000°N, 0.0000°E)
Time: 11:01:48
(UTC+00:00)
Language:

TBA - TO BE ASSIGNED - Orbit

View from above orbital plane
View from above orbital plane
View from above satellite
View from above satellite

Ground track
Ground track

The orbit is defined by the following mean orbital elements,

1 68082U          26145.49010172 +.00000000 +00000-0 +54013-3 0 00005
2 68082  53.1583 181.2721 0001141  64.5588 295.5533 15.34396606    01
Epoch (UTC): 25 May 2026 11:45:44
Eccentricity: 0.0001141
inclination: 53.1583°
perigee height: 462 km
apogee height: 463 km
right ascension of ascending node: 181.2721°
argument of perigee: 64.5588°
revolutions per day: 15.34396606
mean anomaly at epoch: 295.5533°

The dashed part of the orbit path shows where the satellite is in the earth's shadow,  

DLR